Probability
3 3 2 2 1 0 0 0 1 2 3 5 6 5 4 3 2 1 0 2 3 2 2 4 7 7 7 8 8 6 4 3 5 6 5 3 2 2 2 2 2 3 3
3 2 1 1 0 0 0 0 0 1 2 4 5 5 4 3 3 2 1 2 3 3 3 3 4 5 7 8 9 8 7 5 6 7 6 4 3 3 3 3 2 2 2
2 1 0 0 0 0 0 0 0 0 1 2 4 4 4 4 4 3 2 2 3 4 4 3 2 4 7 9 10 10 10 9 8 7 7 6 5 4 4 4 3 1 1
2 1 0 0 0 0 0 0 0 0 0 1 2 2 3 3 3 3 3 2 2 3 3 3 5 6 7 8 9 9 10 9 9 10 9 8 7 7 6 5 3 1 1
2 1 1 0 0 0 0 0 0 0 0 1 1 1 1 1 2 3 2 1 1 1 1 3 6 9 9 8 8 9 8 7 9 11 10 9 9 9 7 4 3 2 1
2 1 1 0 0 0 0 0 0 0 0 0 0 0 0 0 1 1 1 1 0 0 0 1 4 7 9 9 8 9 7 5 6 7 7 7 9 9 7 4 3 2 1
2 1 0 0 1 1 1 0 0 0 0 0 0 0 0 0 0 0 0 0 0 0 0 0 1 3 5 6 6 6 7 5 4 3 3 4 6 7 6 5 3 2 2
1 2 1 1 1 2 1 1 0 0 0 0 0 0 0 0 0 0 0 0 0 0 0 0 0 0 1 2 2 3 5 5 3 1 0 2 4 4 5 5 4 3 3
1 2 2 1 1 2 2 1 0 0 0 0 0 0 0 0 0 0 0 0 0 0 0 0 0 0 0 0 0 1 2 3 2 1 1 2 2 2 4 4 4 3 3
0 1 1 1 1 2 2 1 0 0 0 0 0 0 0 0 0 0 0 0 0 0 0 0 0 0 0 0 0 0 1 1 1 1 2 2 1 1 2 3 3 3 3
0 0 0 0 0 1 1 0 0 0 0 0 0 0 0 0 0 0 0 0 0 0 0 0 0 0 0 0 0 0 0 0 0 0 1 1 0 0 1 1 2 2 1
0 0 0 0 0 0 0 0 0 0 0 0 0 0 0 0 0 0 0 0 0 0 0 0 0 0 0 0 0 0 0 0 0 0 0 0 0 0 0 1 2 1 0
0 0 0 0 0 0 0 0 0 0 0 0 0 0 0 0 0 0 0 0 0 0 0 0 0 0 0 0 0 0 0 0 0 0 0 0 0 0 0 1 2 1 0
0 0 0 0 0 0 0 0 0 0 0 0 0 0 0 0 0 0 0 0 0 0 0 0 0 0 0 0 0 0 0 0 0 0 0 0 0 0 0 1 1 0 0
0 0 0 0 0 0 0 0 0 0 0 0 0 0 0 0 0 0 0 0 0 0 0 0 0 0 0 0 0 0 0 0 0 0 0 0 0 0 0 0 0 0 0
0 0 0 0 0 0 0 0 0 0 0 0 0 0 0 0 0 0 0 0 0 0 0 0 0 0 0 0 0 0 0 0 0 0 0 0 0 0 0 0 0 0 0
0 0 0 0 0 0 0 0 0 0 0 0 0 0 0 0 0 0 0 0 0 0 0 0 0 0 0 0 0 0 0 0 0 0 0 0 0 0 0 0 0 0 0
0 0 0 0 0 0 0 0 0 0 0 0 0 0 0 0 0 0 0 0 0 0 0 0 0 0 0 0 0 0 0 0 0 0 0 0 0 0 0 0 0 0 0
0 0 0 0 0 0 0 0 0 0 0 0 0 0 0 0 0 0 0 0 0 0 0 0 0 0 0 0 0 0 0 0 0 0 0 0 0 0 0 0 0 0 0
0 0 0 0 0 0 0 0 0 0 0 0 0 0 0 0 0 0 0 0 0 0 0 0 0 0 0 0 0 0 0 0 0 0 0 0 0 0 0 0 0 0 0
0 0 0 0 0 0 0 0 0 0 0 0 0 0 0 0 0 0 0 0 0 0 0 0 0 0 0 0 0 0 0 0 0 0 0 0 0 0 0 0 0 0 0
0 0 0 0 0 0 0 0 0 0 0 0 0 0 0 0 0 0 0 0 0 0 0 0 0 0 0 0 0 0 0 0 0 0 0 0 0 0 0 0 0 0 0
0 0 0 0 0 0 0 0 0 0 0 0 0 0 0 0 0 0 0 0 0 0 0 0 0 0 0 0 0 0 0 0 0 0 0 0 0 0 0 0 0 0 0
0 0 0 0 0 0 0 0 0 0 0 0 0 0 0 0 0 0 0 0 0 0 0 0 0 0 0 0 0 0 0 0 0 0 0 0 0 0 0 0 0 0 0
0 0 0 0 0 0 0 0 0 0 0 0 0 0 0 0 0 0 0 0 0 0 0 0 0 0 0 0 0 0 0 0 0 0 0 0 0 0 0 0 0 0 0
0 0 0 0 0 0 0 0 0 0 0 0 0 0 0 0 0 0 0 0 0 0 0 0 0 0 0 0 0 0 0 0 0 0 0 0 0 0 0 0 0 0 0
Wind_Speed
1 0 1 1 1 1 1 1 1 2 2 3 3 3 3 4 3 3 3 6 6 6 7 8 7 8 9 9 9 8 9 10 11 11 12 12 13 13 14 14 15 15 15
1 1 0 1 1 1 1 1 1 2 2 2 3 3 3 3 3 3 3 3 5 4 5 6 7 7 7 8 8 8 8 9 10 10 11 11 12 12 13 14 14 15 15
1 1 0 1 1 1 1 1 1 1 2 2 3 3 3 3 3 3 3 2 2 4 5 5 6 6 7 7 8 8 8 9 9 9 10 10 11 11 12 12 13 14 15
1 1 1 1 1 1 1 1 1 1 2 2 2 2 2 2 3 3 2 2 2 2 4 6 6 6 7 8 8 8 9 9 9 9 9 9 10 11 11 11 11 12 13
1 1 1 1 1 1 1 1 1 1 2 3 3 2 2 2 2 2 2 2 2 2 2 4 6 6 7 8 8 8 9 9 8 8 9 9 9 9 9 10 10 11 12
0 1 0 0 0 0 1 1 1 1 1 2 3 2 2 2 1 2 2 2 2 2 2 2 3 4 6 6 6 7 8 8 8 8 8 8 7 7 9 9 9 10 12
1 1 0 0 0 0 1 1 1 2 2 1 1 2 2 2 2 2 1 1 2 2 2 2 1 2 2 4 5 6 7 8 8 8 8 8 7 6 8 9 10 10 11
0 0 0 0 0 0 1 1 0 0 1 1 0 1 2 3 2 2 1 1 2 2 3 3 2 2 2 2 4 5 5 6 7 8 7 7 6 7 6 8 9 9 10
1 0 0 0 0 0 1 2 1 1 1 1 0 1 1 2 2 2 2 2 2 2 2 2 2 2 2 2 2 3 4 4 5 7 7 7 6 6 6 5 7 9 9
1 0 1 0 0 0 1 2 1 1 1 1 1 1 2 2 1 2 2 2 2 2 2 2 2 2 2 2 2 3 3 3 5 5 6 7 6 5 6 6 5 8 8
1 1 1 0 1 1 1 2 1 1 1 2 1 1 1 1 2 2 3 3 3 3 2 3 2 2 2 1 2 2 3 2 3 4 4 4 4 5 6 6 6 7 8
1 2 1 1 1 1 2 2 2 2 2 2 2 2 2 2 2 2 3 3 3 3 3 2 2 2 2 2 2 3 3 2 2 3 4 4 5 5 6 7 7 7 8
2 2 2 1 2 2 2 1 2 2 2 2 3 2 2 3 2 2 2 2 3 2 2 2 2 2 2 2 2 3 3 2 2 3 4 4 5 5 5 6 6 6 8
2 2 2 2 2 2 2 1 1 2 2 2 3 3 2 3 2 3 2 2 2 2 2 3 2 2 2 2 2 3 2 2 2 2 3 3 4 5 5 4 4 4 5
2 2 2 2 2 2 2 2 2 3 2 2 3 3 3 2 2 3 3 3 2 2 3 2 2 2 2 2 2 2 2 2 2 3 2 2 3 3 3 3 3 4 4
2 2 2 2 3 3 2 2 2 3 2 3 2 2 2 2 2 2 3 3 3 3 3 2 2 3 3 2 2 2 2 3 3 3 3 3 3 4 4 4 4 4 4
2 2 2 3 3 3 2 2 3 3 3 3 2 2 3 2 2 2 2 2 2 3 3 3 2 2 2 2 2 2 2 2 2 4 4 4 5 5 4 4 4 4 4
2 2 2 2 3 3 2 3 4 4 3 3 3 3 3 2 2 2 2 2 2 3 3 3 2 2 2 2 2 2 2 2 2 4 5 5 6 6 5 5 5 5 4
2 2 2 2 3 3 3 3 4 4 4 3 3 3 4 3 3 2 2 2 2 2 2 2 2 1 1 1 2 2 2 2 2 3 4 5 6 6 6 6 6 6 5
1 2 2 3 3 3 3 4 4 4 3 3 3 3 4 3 3 3 2 2 2 1 1 1 2 1 1 2 1 1 2 1 2 2 3 3 4 6 6 7 7 6 7
1 1 2 3 3 3 3 4 4 3 2 3 3 3 3 3 4 3 3 2 2 1 1 1 2 1 2 1 2 1 2 2 2 2 2 2 2 3 4 5 7 8 8
2 2 2 2 3 3 4 4 3 3 2 2 3 3 3 2 3 3 3 4 4 3 2 2 2 3 3 3 2 2 2 1 2 1 1 2 2 3 3 4 6 8 9
2 2 2 2 3 5 5 4 4 2 2 2 2 3 3 3 3 2 3 3 3 4 6 4 4 5 4 4 3 3 3 3 3 2 1 3 2 3 3 4 7 8 9
1 2 3 3 3 5 5 5 4 2 2 2 3 3 3 4 3 3 2 3 3 3 3 4 5 6 6 4 4 4 3 3 3 3 3 3 2 3 3 3 6 8 9
1 2 2 3 3 5 6 5 3 1 2 3 3 3 2 3 4 3 2 3 4 4 3 4 5 6 7 7 5 2 3 2 3 2 3 3 2 2 2 3 3 6 8
2 2 3 3 3 4 6 6 3 1 2 3 3 3 3 4 5 4 2 2 4 5 4 4 4 4 4 5 6 6 4 3 3 3 3 3 2 1 2 2 2 2 4
Wind_Direction
172 293 319 332 318 315 309 308 315 313 310 307 302 298 292 279 264 261 267 268 263 261 258 260 254 245 241 240 240 239 235 231 226 225 223 220 220 221 221 216 210 207 206
161 154 296 305 302 297 289 283 285 290 290 292 296 293 287 284 267 263 259 275 280 278 268 262 258 257 251 247 244 241 235 228 226 225 223 221 220 222 223 220 214 210 209
158 170 202 284 289 299 304 303 304 305 303 302 300 301 296 292 278 266 262 270 287 290 286 277 271 262 256 255 250 240 234 228 224 220 219 219 219 219 221 223 219 214 212
161 160 199 274 311 327 319 307 308 310 314 314 302 300 308 299 290 275 269 279 285 295 299 294 283 272 263 258 253 244 238 233 227 222 216 215 218 218 218 222 222 216 213
150 151 183 274 343 1 334 317 334 302 305 308 293 291 300 292 287 290 291 292 291 291 295 304 297 284 271 262 257 254 248 238 230 223 217 215 217 217 219 222 224 219 216
117 135 162 319 29 23 337 331 313 320 290 294 300 304 298 296 294 291 287 299 306 304 302 296 293 292 286 275 266 259 252 242 229 223 218 216 216 214 216 217 218 220 219
43 97 57 18 30 347 297 312 308 321 324 325 331 324 319 313 304 292 292 299 314 313 313 301 295 292 290 291 282 267 254 246 234 227 223 218 216 211 213 215 217 218 219
13 136 132 305 42 343 332 334 306 308 317 348 5 342 333 325 322 316 300 280 294 314 319 309 298 287 288 282 281 273 257 249 234 224 222 221 217 213 212 217 217 215 216
345 52 79 42 35 174 270 278 249 193 273 299 250 173 230 276 306 305 299 299 308 312 312 316 295 283 285 281 277 271 265 252 243 231 225 218 215 216 213 212 216 217 221
324 344 354 2 343 262 261 269 239 208 202 260 281 246 229 227 256 298 306 312 315 304 307 305 300 294 289 293 293 300 275 246 240 235 225 221 217 221 217 212 219 221 224
320 310 300 289 265 258 267 273 267 243 218 225 233 246 256 256 228 239 287 311 319 305 299 291 287 284 279 280 281 298 286 256 242 233 227 226 221 232 229 220 225 226 225
314 315 310 290 273 263 271 280 268 253 242 235 231 220 217 230 230 223 252 282 298 299 300 286 275 272 272 273 278 296 299 299 262 235 225 231 233 237 232 225 230 232 230
288 292 302 286 280 273 270 273 276 273 252 246 239 235 228 232 224 215 235 263 275 287 291 280 264 263 267 266 270 277 285 295 295 254 232 233 236 238 236 230 233 239 240
256 275 281 281 283 283 283 282 285 279 264 254 256 250 245 243 222 213 214 228 274 280 275 281 288 257 255 252 256 266 258 261 273 279 255 239 239 239 238 238 240 246 249
251 262 263 273 284 285 279 273 275 279 279 268 262 256 253 250 237 233 225 217 230 268 279 278 274 264 259 254 256 249 247 254 266 269 262 247 245 244 236 238 234 234 239
244 253 263 273 281 288 286 274 275 277 278 276 262 263 266 258 258 248 234 227 224 231 255 258 266 279 273 275 257 252 249 262 261 252 238 233 238 238 237 236 232 231 229
246 252 266 277 286 290 289 276 276 279 276 281 281 269 275 269 265 267 244 226 221 217 243 269 272 288 269 270 283 276 263 253 257 249 241 233 235 236 237 236 233 230 229
257 256 261 278 288 292 294 283 283 285 272 273 278 277 280 278 267 261 247 237 228 217 221 258 278 288 278 267 268 269 269 255 251 250 237 231 235 237 236 234 232 226 220
270 285 283 280 289 290 288 283 276 276 266 258 259 258 266 271 277 274 259 259 250 235 219 230 261 272 289 291 289 282 279 276 268 254 238 232 232 232 231 229 228 222 214
265 287 290 286 288 291 289 287 281 278 271 269 263 256 257 251 255 266 261 258 253 247 236 234 257 273 276 284 260 275 291 281 284 274 254 241 235 235 232 228 226 221 218
278 278 294 301 297 293 286 285 284 283 281 290 292 282 271 264 250 245 243 245 236 238 246 249 261 264 270 264 257 252 268 288 284 253 256 252 237 242 239 233 230 226 222
324 323 307 300 306 302 296 291 291 290 286 287 301 308 301 293 298 294 272 249 224 215 225 232 244 250 261 252 251 246 255 283 285 235 238 267 235 249 245 234 228 224 223
326 324 312 310 309 308 313 315 309 298 295 290 291 301 312 318 321 312 303 290 264 234 219 214 231 244 248 238 227 244 234 232 252 259 238 264 245 256 254 241 227 226 225
300 300 309 310 305 307 315 317 318 316 305 302 293 281 284 301 313 317 310 312 299 279 245 228 232 244 248 245 229 238 240 252 260 245 217 245 246 253 263 251 234 226 223
302 298 303 308 308 309 316 316 319 326 312 306 302 293 281 290 302 317 310 306 307 302 283 255 248 255 255 249 229 214 219 229 265 259 201 224 246 255 262 256 241 225 222
270 297 307 304 299 301 310 312 311 298 304 305 310 304 287 280 290 303 281 278 291 295 307 314 304 290 269 257 232 216 219 225 245 256 209 203 228 234 268 252 249 234 225